Location: Pinon Hills
(34.4429°N, 117.6403°W)
Time: 05:53:10
(UTC-07:00)

Daily predictions for brighter satellites

Satellite Brightness Start Highest point End
(mag) Time Altitude Azimuth Time Altitude Azimuth Time Altitude Azimuth
CZ-2C R/B 3.6 00:08:13 10° NNE 00:12:02 45° NNE 00:12:02 45° NNE
SeaSat 1 3.8 00:19:51 35° N 00:19:51 35° N 00:22:50 10° NNW
USA 267 4.1 00:16:51 10° NNE 00:23:01 46° NW 00:25:23 33° W
NOSS 3-1 (C) 4.1 00:26:33 10° NNW 00:34:20 72° ENE 00:34:45 70° E
SL-16 R/B 3.2 00:31:37 10° NNW 00:35:24 44° NNW 00:35:24 44° NNW
Lacrosse 5 3.6 00:40:43 30° NNE 00:40:43 30° NNE 00:43:24 10° NNE
USA 234 4.3 00:52:05 28° E 00:54:44 40° NE 01:00:44 10° NNW
Lacrosse 5 rocket 3.8 00:59:35 10° NNW 01:01:39 23° N 01:01:39 23° N
NOSS 3-1 (A) 4.0 00:58:50 10° NNW 01:06:42 85° ENE 01:06:48 84° ENE
COSMOS 2428 4.1 01:11:15 10° N 01:16:18 31° ENE 01:16:27 31° ENE
Cosmos 2360 Rocket 3.1 01:13:38 10° NNW 01:17:33 45° N 01:17:33 45° N
Cosmos 2322 Rocket 4.1 01:25:14 10° NW 01:27:23 21° WNW 01:27:23 21° WNW
Cosmos 1725 Rocket 4.4 01:38:12 10° N 01:44:08 58° ENE 01:44:08 58° ENE
Cosmos 2333 Rocket 4.0 01:44:12 10° N 01:48:58 26° ENE 01:50:57 22° E
Cosmos 2297 Rocket 3.7 01:56:55 26° E 01:56:55 26° E 02:00:55 10° NE
Cosmos 2219 Rocket 3.1 01:58:19 10° N 02:03:44 43° ENE 02:04:22 41° E
Cosmos 2237 Rocket 3.6 02:15:31 10° N 02:20:34 33° ENE 02:23:26 21° ESE
NPP 3.9 02:19:54 10° NNE 02:24:51 63° ENE 02:24:51 63° ENE
SL-16 R/B 3.9 02:26:03 17° ESE 02:30:05 34° ENE 02:35:31 10° N
Cosmos 2227 Rocket 2.2 02:33:48 77° ENE 02:33:48 77° ENE 02:39:13 10° NNE
USA 234 3.8 02:39:22 42° W 02:39:22 42° W 02:43:55 10° NW
Aureole 2 Rocket 4.2 02:37:00 10° N 02:40:29 37° ENE 02:40:29 37° ENE
Cosmos 1140 Rocket 3.6 02:41:38 71° NNW 02:41:38 71° NNW 02:46:22 10° NNE
Cosmos 614 Rocket 4.0 02:42:51 76° NE 02:42:51 76° NE 02:47:44 10° NNE
SL-08 R/B 3.5 02:45:31 74° NE 02:45:31 74° NE 02:50:17 10° N
Cosmos 2151 3.9 02:47:03 44° N 02:47:03 44° N 02:49:59 10° N
Cosmos 1850 Rocket 4.1 02:47:49 66° ESE 02:47:49 66° ESE 02:52:56 10° NNE
Meteor 2-10 4.1 02:43:51 10° N 02:48:26 69° NW 02:48:26 69° NW
Cosmos 1741 Rocket 4.0 02:53:15 71° ESE 02:53:26 72° ESE 02:58:45 10° NNE
Resurs 1-4 Rocket 2.6 02:48:22 10° NNE 02:53:32 51° E 02:54:22 46° SE
ADEOS 4.2 02:51:26 10° NNE 02:56:29 48° E 02:57:25 43° SE
ADEOS Rocket 3.6 02:49:08 10° NNE 02:56:42 74° ESE 02:59:38 42° S
AQUA 3.9 02:52:44 10° N 02:57:04 67° NW 02:57:04 67° NW
ATLAS 2AS CENTAUR R/B 2.8 02:49:52 10° NNW 02:57:48 77° WSW 03:01:00 38° SSE
Cosmos 1900 4.3 02:58:02 82° NE 02:58:02 82° NE 03:02:50 10° NNE
Cosmos 2228 Rocket 4.5 02:54:10 10° NNW 02:56:43 29° NW 02:56:43 29° NW
COSMOS 2428 4.1 02:55:27 10° NW 02:58:26 25° WNW 02:58:26 25° WNW
Cosmos 1151 Rocket 3.7 02:56:41 10° N 02:59:54 48° NNW 02:59:54 48° NNW
Cosmos 1455 3.4 02:58:34 10° N 03:02:13 38° E 03:02:20 38° E
Cosmos 2082 3.6 03:03:00 65° W 03:03:24 67° WNW 03:09:00 10° NNE
Meteor 1-11 4.3 03:07:22 56° W 03:07:41 57° W 03:13:20 10° N
CZ-2D R/B 2.2 03:03:15 10° NNE 03:08:28 70° ESE 03:09:26 57° SSE
CBERS-1 4.4 03:05:02 10° N 03:09:57 49° WNW 03:10:00 49° WNW
Meteor 1-27 4.2 03:06:45 10° NNW 03:12:33 73° W 03:13:36 59° SSW
ARIANE 5 R/B 2.4 03:13:07 10° NNE 03:18:13 82° ESE 03:19:11 59° S
Cosmos 1703 4.2 03:20:33 38° NW 03:20:33 38° NW 03:23:24 10° N
GPS 2-04 Rocket1 2.9 03:20:18 69° E 03:20:18 69° E 03:24:02 10° E
Cosmos 1707 Rocket 4.5 03:16:31 10° N 03:20:45 46° E 03:22:41 28° SE
Cosmos 1626 3.4 03:24:32 32° NW 03:24:32 32° NW 03:26:59 10° N
IRS-1C 4.5 03:19:23 10° N 03:24:29 47° WNW 03:25:12 44° W
Cosmos 1072 Rocket 4.4 03:21:41 10° NNW 03:27:46 68° W 03:29:52 42° SSW
MOS 1 Rocket 4.3 03:26:13 10° NNE 03:31:15 48° E 03:34:17 23° SSE
Cosmos 1666 Rocket 3.6 03:30:27 53° SSE 03:31:24 74° E 03:35:49 10° N
Cosmos 1513 Rocket 4.4 03:26:45 10° N 03:33:11 81° W 03:36:35 30° S
Cosmos 2333 Rocket 2.8 03:28:04 10° NW 03:32:53 36° W 03:32:53 36° W
Cosmos 1891 Rocket 4.4 03:28:42 10° N 03:35:04 81° W 03:38:25 29° S
CZ-3B DEB 4.4 03:28:00 31° SW 03:36:32 89° SE 03:51:11 10° NE
Cosmos 2297 Rocket 3.0 03:38:44 31° W 03:40:06 35° WNW 03:45:14 10° N
USA 161 4.0 03:41:53 13° E 03:42:02 13° ENE 03:43:03 10° NE
UNKNOWN OBJECT B 2.8 03:39:03 10° NNE 03:43:04 78° ESE 03:44:01 50° S
Cosmos 1980 4.1 03:40:12 10° NW 03:45:26 39° WSW 03:46:06 37° WSW
Cosmos 2219 Rocket 3.7 03:43:06 10° NW 03:46:02 20° W 03:46:02 20° W
Cosmos 1805 Rocket 4.0 03:47:45 41° W 03:48:14 43° W 03:52:28 10° N
Cosmos 1464 Rocket 4.2 03:42:54 10° NNW 03:48:46 49° W 03:51:06 33° SW
ISS -3.1 03:47:18 10° NW 03:50:31 53° NE 03:53:42 10° ESE
ATLAS 3B CENTAUR R/B 3.2 03:36:19 10° W 03:50:56 55° SSW 03:56:14 10° ESE
BREEZE-M DEB 4.3 03:50:24 21° WNW 03:51:58 26° NW 03:54:17 10° NNE
Cosmos 1241 Rocket 4.4 03:50:54 10° NNW 03:57:18 75° WSW 04:03:32 10° SSE
DELTA 2 R/B (1) 3.9 03:55:02 22° W 03:58:35 61° NNW 04:04:04 10° ENE
Cosmos 2208 Rocket 4.1 03:53:58 10° NNW 03:59:03 55° WSW 04:02:13 22° S
USA 102 3.3 03:55:49 10° NNE 03:59:04 70° NNW 03:59:04 70° NNW
Cosmos 2237 Rocket 3.0 03:59:44 10° NW 04:04:27 28° WSW 04:05:10 27° WSW
SL-16 R/B 2.1 03:59:16 10° NNW 04:04:57 75° WSW 04:10:34 10° SSE
Okean O Rocket 3.4 04:01:20 10° NE 04:05:05 28° E 04:08:48 10° SSE
Lacrosse 4 Rocket 1.7 04:05:12 36° WSW 04:06:29 50° WNW 04:10:35 10° NNE
Cosmos 468 Rocket 4.1 04:01:57 10° NNW 04:07:09 76° ENE 04:12:16 10° SSE
Cosmos 2227 4.3 04:03:29 23° SSW 04:07:13 82° ESE 04:13:00 10° NNE
Cosmos 1634 Rocket 4.4 04:02:24 10° N 04:08:34 63° E 04:14:38 10° SSE
Cosmos 1933 4.5 04:05:43 10° N 04:09:39 44° E 04:13:34 10° SSE
ATLAS 5 CENTAUR R/B 3.3 04:07:16 12° S 04:10:55 29° ESE 04:15:05 10° NE
SL-16 R/B 3.2 04:11:08 24° SW 04:13:35 32° W 04:19:03 10° NW
BREEZE-M DEB (TANK) 4.4 04:01:54 10° NW 04:15:20 42° WSW 04:19:29 10° S
Cosmos 1470 Rocket 3.4 04:12:59 21° S 04:15:52 85° W 04:20:12 10° N
Cosmos 1633 Rocket 3.7 04:15:39 27° WSW 04:17:14 37° W 04:21:18 10° NNW
OAO 3 Copernicus 4.3 04:13:45 16° W 04:17:44 58° SSW 04:22:42 10° ESE
Cosmos 2227 Rocket 4.2 04:15:37 10° W 04:18:14 13° NW 04:20:54 10° NNW
MOZ.5/SAFIR/RUBIN 5/SL-8 3.9 04:15:33 15° S 04:19:25 55° W 04:24:07 10° NNW
Sich 1 4.1 04:18:35 24° WSW 04:19:57 29° WNW 04:23:46 10° NNW
CZ-2D R/B 4.2 04:21:27 10° N 04:25:10 36° WNW 04:27:08 22° WSW
Cosmos 1400 Rocket 2.9 04:23:59 12° S 04:27:33 72° E 04:31:29 10° NNE
Cosmos 1814 Rocket 4.1 04:24:08 10° NNW 04:29:31 87° ENE 04:34:52 10° SSE
Cosmos 1763 Rocket 3.9 04:25:52 10° NNW 04:31:04 67° ENE 04:36:11 10° SSE
Cosmos 1892 3.6 04:28:23 10° SSE 04:32:01 48° E 04:35:42 10° NNE
Resurs 1-4 Rocket 3.8 04:29:30 10° NNW 04:32:55 18° WNW 04:35:28 13° W
Cosmos 1455 4.4 04:36:43 10° WNW 04:37:17 10° W 04:37:17 10° W
Cosmos 2263 Rocket 3.0 04:35:06 10° S 04:40:26 49° ESE 04:45:47 10° NNE
CZ-3 R/B 3.7 03:58:29 10° W 04:41:08 68° SSW 04:50:01 10° ESE
PAYLOAD B 4.4 04:36:55 10° NNE 04:42:25 73° ESE 04:47:53 10° S
ADEOS II 2.1 04:38:01 10° NNE 04:43:18 88° ESE 04:48:34 10° SSW
ATLAS 2AS CENTAUR R/B 4.4 04:45:20 10° W 04:47:22 11° W 04:48:17 11° WSW
Cosmos 1354 Rocket 4.1 04:42:20 10° SSW 04:47:38 84° ESE 04:52:57 10° NNE
Cosmos 220 Rocket 4.4 04:44:11 14° SW 04:47:47 48° WNW 04:52:07 10° N
CZ-2D R/B 4.1 04:45:49 10° NW 04:47:54 12° WNW 04:49:59 10° W
CZ-4B R/B 3.0 04:44:22 10° N 04:48:45 79° WNW 04:52:56 10° SSW
NOSS 3-4 (A) 3.9 04:42:09 10° NW 04:49:16 67° WSW 04:56:49 10° SSE
NOSS 3-4 (C) 3.9 04:42:15 10° NW 04:49:23 68° WSW 04:56:56 10° SSE
In-Cosmos 22 Rocket 4.2 04:45:07 10° SSW 04:50:21 57° W 04:55:35 10° N
PSLV R/B 3.5 04:46:11 10° NNE 04:50:25 84° ESE 04:54:36 10° S
OAO 3 Rocket 3.6 04:46:45 14° SW 04:50:50 53° SSE 04:55:38 10° E
Cosmos 371 Rocket 3.2 04:46:17 10° NNW 04:51:04 72° WSW 04:55:49 10° S
Meteor 1-26 Rocket 4.3 04:46:44 10° N 04:52:30 85° E 04:58:06 10° S
Landsat 4 3.7 04:49:14 10° S 04:52:57 60° WSW 04:56:44 10° NNW
IRS-1C Rocket 4.2 04:50:23 10° NNE 04:55:41 87° ESE 05:00:58 10° SSW
USA 215 3.8 04:49:43 10° NE 04:56:07 55° SE 05:02:28 10° SSW
GPS 2-04 Rocket1 3.4 04:55:39 10° W 04:59:31 38° SSW 05:03:29 10° SE
Meteosat 1 Rocket2 3.8 04:56:20 12° SW 04:59:34 29° S 05:02:45 10° ESE
Meteor 2-10 Rocket 3.6 05:00:39 10° NNW 05:05:29 50° W 05:10:21 10° SSW
Abrixas rocket 3.9 05:05:28 10° SSW 05:08:19 27° SE 05:11:12 10° ENE
Cosmos 1867 3.6 05:02:56 10° SSW 05:08:22 86° WNW 05:13:51 10° NNE
BREEZE-M R/B 4.2 05:09:47 10° WSW 05:15:33 34° NW 05:18:45 10° NNE
